Regional Weather Roundup
Issued by NWS Cleveland, OH

Home | Current Version | Previous Version | Graphics & Text | Print | Product List | Glossary On
Versions: 1 2 3 4 5 6 7 8 9 10 11 12 13 14 15 16 17 18 19 20 21 22 23 24 25 26 27 28 29 30 31 32 33 34 35 36 37 38 39 40 41 42 43 44 45 46 47 48 49 50
000
ASUS41 KCLE 241500
RWRCLE
OHIO REGIONAL WEATHER ROUNDUP
NATIONAL WEATHER SERVICE WILMINGTON, OH
1100 AM EDT THU JUL 24 2014

NOTE: "FAIR" INDICATES FEW OR NO CLOUDS BELOW 12,000 FEET WITH NO
SIGNIFICANT WEATHER AND/OR OBSTRUCTIONS TO VISIBILITY.

OHZ001>008-015>018-024>027-034-035-043-044-241600-
   NORTHWEST OHIO

CITY           SKY/WX    TMP DP  RH WIND       PRES   REMARKS
DEFIANCE       SUNNY     71  52  50 NE9       30.12F
FINDLAY        MOSUNNY   70  57  63 NE14G25   30.10R
TOLEDO EXPRESS SUNNY     70  50  49 NE12      30.12R
TOLEDO METCALF SUNNY     70  52  52 NE8G18    30.12R
LIMA           MOSUNNY   68  58  70 N12       30.10S
$$

OHZ009>014-019>023-028>033-038-089-241600-
   NORTHEAST OHIO

CITY           SKY/WX    TMP DP  RH WIND       PRES   REMARKS
CLE-HOPKINS    PTSUNNY   67  57  70 N16       30.09R
CLE-LAKEFRONT  PTSUNNY   69  57  65 NE16      30.06R
CUY CO. ARPT   PTSUNNY   68  59  73 NE9       30.07S
LORAIN-ELYRIA  MOSUNNY   72  57  59 NE18      30.08R
ASHTABULA      PTSUNNY   68  55  63 VRB7      30.07S
AKRON-CANTON   PTSUNNY   71  53  52 N12       30.05S
WOOSTER        NOT AVBL
MANSFIELD      PTSUNNY   69  56  62 N9        30.08S
YOUNGSTOWN     PTSUNNY   70  56  61 N9        30.05S
$$

OHZ042-051>053-060>062-070>072-077>081-241600-
  SOUTHWEST OHIO

CITY           SKY/WX    TMP DP  RH WIND       PRES   REMARKS
CINC-COVINGTON CLOUDY    67  56  67 N13       30.07R
CINC-LUNKEN    CLOUDY    67  58  72 NE13      30.07S
HAMILTON       MOSUNNY   70  59  68 NE8       30.08S
DAYTON         NOT AVBL
WRIGHT-PAT AFB MOSUNNY   66  57  71 NE9       30.07S
DAYTON GENERAL MOSUNNY   66  58  75 NE9       30.07S
WILMINGTON     PTSUNNY   68  56  65 N14G21    30.06R
$$

OHZ036-037-039>041-045>050-054>059-063>069-073>076-082>088-241600-
  CENTRAL AND SOUTHEAST OHIO

CITY           SKY/WX    TMP DP  RH WIND       PRES   REMARKS
COLUMBUS       MOSUNNY   73  56  54 NE12      30.04F
OSU AIRPORT    MOSUNNY   69  57  65 N14       30.06S
BOLTON FIELD   SUNNY     70  59  68 NE12      30.06S
RICKENBACK AFB NOT AVBL
NEWARK         MOSUNNY   68  54  60 N10       30.04S
MARION         PTSUNNY   70  56  61 N14G21    30.08S
LANCASTER      PTSUNNY   70  57  63 N10       30.04F
ZANESVILLE     CLOUDY    68  56  65 N9G17     30.04R
NEW PHILLY     MOSUNNY   68  56  65 NE7       30.05S
$$



USA.gov is the U.S. government's official web portal to all federal, state and local government web resources and services.